Location: Deep Water Point Estates
(33.0568°N, 96.4522°W)
Time: 03:28:25
(UTC+00:00)

Daily predictions for brighter satellites

Satellite Brightness Start Highest point End
(mag) Time Altitude Azimuth Time Altitude Azimuth Time Altitude Azimuth
Cosmos 2233 Rocket 4.3 01:41:02 10° N 01:47:21 78° W 01:53:38 10° S
Resurs 01 Rocket 2.7 01:46:51 10° SE 01:50:38 29° ENE 01:54:27 10° NNE
Cosmos 1602 4.4 01:50:52 10° NNW 01:54:21 51° W 01:57:48 10° S
Cosmos 2237 Rocket 3.7 01:51:02 10° SW 01:56:24 43° WNW 02:01:49 10° N
SL-24 R/B - RUBIN 2 4.4 01:51:19 10° SSW 01:57:07 88° ESE 02:03:39 10° NNE
Cosmos 1782 2.7 01:56:21 10° S 02:00:05 60° E 02:03:51 10° NNE
BREEZE-M DEB (TANK) 4.1 01:58:14 10° W 02:01:08 42° NNW 02:05:45 10° NE
Meteor 2-14 Rocket 4.5 01:59:08 10° S 02:05:16 86° E 02:11:26 10° N
OAO 2 Rocket 3.5 01:59:57 10° WNW 02:05:17 78° N 02:10:32 10° E
H-2A R/B 0.7 02:04:06 10° SW 02:05:49 22° S 02:06:29 17° SE
Okean O Rocket 2.4 02:02:11 10° SE 02:06:13 35° ENE 02:10:15 10° N
Cosmos-2242 3.0 02:03:10 10° S 02:07:21 89° WSW 02:11:36 10° N
USA 290 4.1 02:10:44 10° NNE 02:12:53 17° ENE 02:14:20 13° E
Aureole 2 3.9 02:13:31 10° NNW 02:16:22 88° W 02:19:08 11° SSE
Feng Yun 1-1 Rocket 4.4 02:14:05 10° SSE 02:19:56 75° ENE 02:25:51 10° N
DELTA 2 DEB (DPAF) 4.1 02:19:06 10° N 02:23:20 82° WNW 02:27:32 10° SSW
SL-8 R/B 4.2 02:21:30 10° WSW 02:26:11 62° NW 02:30:54 10° NE
Cosmos 1943 Rocket 2.2 02:20:52 10° NNW 02:26:33 88° ENE 02:31:46 12° SSE
SPOT 1/Viking Rocket 4.2 02:22:59 10° S 02:28:02 54° W 02:33:05 10° NNW
FALCON 9 R/B 2.6 02:33:11 10° W 02:37:11 78° N 02:49:50 10° E
Cosmos 494 Rocket 4.4 02:33:50 10° SSE 02:38:26 38° E 02:43:09 10° NE
Cosmos 2221 2.7 02:36:34 16° SSE 02:39:47 49° E 02:43:57 10° NNE
CZ-4B R/B 3.7 02:36:25 10° S 02:41:42 59° WSW 02:46:57 10° NNW
ATLAS 3B R/B 3.3 02:36:15 10° NNW 02:43:57 56° NE 02:48:59 22° SE
USA 186 3.6 02:43:08 10° SSW 02:45:52 28° W 02:48:40 10° NW
Okean-O 2.9 02:43:48 25° SE 02:46:05 51° ENE 02:50:22 10° N
Cosmos 2278 Rocket 3.7 02:41:34 10° NW 02:46:34 33° WSW 02:51:31 10° SSW
Centaur D AC-29 2.7 02:42:45 10° SW 02:46:43 37° SSE 02:58:16 10° E
Cosmos 1464 Rocket 4.0 02:41:05 10° N 02:47:21 84° W 02:53:29 10° S
ATLAS 5 CENTAUR R/B 4.3 02:43:50 10° WNW 02:48:24 24° WSW 02:53:35 10° SSW
CZ-4C R/B 3.2 02:45:49 10° NNE 02:49:41 78° ESE 02:53:10 13° S
CARTOSAT-1 4.0 02:46:38 12° S 02:50:28 58° W 02:54:40 10° NNW
Cosmos 2297 4.4 02:52:24 10° N 02:57:45 39° ENE 03:00:02 28° ESE
Cosmos 921 Rocket 3.0 02:53:46 10° SSW 02:58:13 89° WNW 03:02:43 10° NNE
Cosmos 1371 Rocket 4.3 02:55:18 10° N 03:00:32 53° ENE 03:02:41 33° SE
OAO 3 Copernicus 4.2 02:55:49 10° WNW 03:00:51 73° SSW 03:02:55 35° ESE
Lacrosse 5 1.9 02:58:32 10° NNW 03:03:38 69° NE 03:05:39 36° ESE
MOS 1 4.2 03:01:43 27° SSE 03:04:51 73° ENE 03:10:31 10° N
Cosmos 1420 Rocket 3.9 03:03:38 10° NNW 03:08:58 80° ENE 03:11:13 36° SSE
OAO 1 4.4 03:05:06 10° WSW 03:10:32 66° SSE 03:13:34 26° E
Terra 2.7 03:11:35 30° E 03:12:11 31° ENE 03:16:18 10° N
SL-16 R/B 4.0 03:11:03 10° SW 03:16:02 32° WNW 03:21:04 10° N
IRS-1A Rocket 4.3 03:16:28 38° SE 03:18:30 62° ENE 03:24:00 10° N
Cosmos 1603 4.0 03:17:41 40° SE 03:18:38 44° ESE 03:24:00 10° NE
USA 308 4.4 03:17:08 10° W 03:19:15 17° SW 03:19:18 17° SW
Cosmos 1743 2.8 03:15:55 10° N 03:19:07 53° ENE 03:19:07 53° ENE
Meteor 2-6 Rocket 4.1 03:16:48 24° S 03:20:20 84° E 03:25:53 10° N
Spot 2 Rocket 4.2 03:20:07 33° E 03:20:45 35° ENE 03:25:17 10° N
GEOS 3 Rocket 3.4 03:16:10 10° NE 03:21:17 70° ESE 03:26:04 11° SSW
Cosmos 1634 Rocket 4.1 03:15:09 10° N 03:21:20 60° E 03:23:26 40° SE
SPOT 5 2.6 03:21:11 49° SSE 03:22:27 84° ENE 03:26:58 10° N
Resurs 01 Rocket 3.9 03:23:47 10° SW 03:27:01 20° W 03:30:17 10° NW
NOSS 3-1 (A) 4.4 03:22:23 10° NW 03:30:24 72° WSW 03:35:18 31° SSE
Cosmos 2369 Rocket 2.3 03:27:56 10° NNW 03:33:28 60° ENE 03:34:31 51° ESE
Cosmos 1726 4.1 03:35:49 10° NNE 03:36:42 16° NNE 03:36:42 16° NNE
Okean 3 Rocket 3.8 03:36:00 10° N 03:39:52 55° NE 03:39:52 55° NE
Cosmos 1842 Rocket 3.6 03:40:11 66° SW 03:40:45 78° W 03:45:10 10° N
Okean O Rocket 4.2 03:39:49 10° SW 03:42:32 16° W 03:45:15 10° NW
Ariane Rocket 3.0 03:43:07 57° E 03:43:22 58° ENE 03:48:21 10° N
BREEZE-M DEB (TANK) 4.4 03:20:41 10° SW 03:45:25 87° NW 03:50:16 10° NE
USA 229 DEB 4.2 03:38:19 10° NNW 03:45:54 59° ENE 03:48:32 42° ESE
USA 229 4.2 03:38:25 10° NNW 03:46:00 59° ENE 03:48:38 42° ESE
ARGOS Delta rocket 3.9 03:46:25 67° S 03:47:08 86° W 03:52:05 10° N
OAO 2 Rocket 3.7 03:44:51 10° W 03:49:36 50° SW 03:49:36 50° SW
Cosmos 1656 Rocket 3.7 03:44:57 10° NNW 03:50:24 71° WSW 03:51:20 58° SSW
Meteor 1-27 Rocket 3.9 03:51:15 50° ENE 03:51:15 50° ENE 03:56:09 10° NNE
Cosmos 1943 4.0 03:50:16 10° SW 03:55:45 50° WNW 04:01:16 10° N
Cosmos 2056 Rocket 4.4 03:51:25 10° NNW 03:56:26 42° WSW 03:57:41 36° SW
Cosmos 1452 Rocket 3.9 03:55:22 10° N 04:00:07 50° NE 04:00:07 50° NE
Cosmos 2142 Rocket 4.4 03:56:36 10° N 04:02:57 74° E 04:03:39 67° SE
Cosmos 44 4.3 04:04:16 10° NW 04:08:06 34° W 04:08:06 34° W
ERS-1 Rocket 3.7 04:15:22 43° WSW 04:15:37 43° W 04:20:25 10° NNW
Meteor 2-9 Rocket 4.4 04:14:39 10° N 04:20:00 62° NE 04:20:00 62° NE
USA 59 Rocket 2.6 04:28:50 10° NNE 04:30:55 15° NE 04:30:55 15° NE
MOS 1 Rocket 4.2 04:34:16 48° WNW 04:34:16 48° WNW 04:38:43 10° NNW
ATLAS 3B R/B 4.2 04:27:53 10° NW 04:34:15 28° WSW 04:36:15 25° SW
USA 281 3.0 04:36:16 86° SE 04:36:24 88° ENE 04:43:02 10° NNW
Lacrosse 5 4.3 04:43:28 10° W 04:44:52 13° W 04:44:52 13° W
Terra 3.8 04:50:17 20° W 04:50:17 20° W 04:53:16 10° NW
Nadezhda 4 Rocket 4.5 04:54:10 51° W 04:54:24 51° W 05:00:26 10° N
Chandra Rocket (1) 4.0 04:52:35 10° W 05:08:13 56° SW 05:08:13 56° SW
Cosmos 1833 Rocket 4.5 05:13:07 22° NE 05:13:07 22° NE 05:15:13 10° NE
CZ-3 Stage 3 3.8 04:44:07 10° WSW 05:15:58 65° S 05:16:07 65° SSE
Cosmos 2369 Rocket 4.5 05:14:03 10° WNW 05:16:18 14° W 05:16:18 14° W
USA 267 3.6 05:46:44 10° NE 05:52:17 61° N 05:52:17 61° N
Lacrosse 4 Rocket 4.5 06:05:34 10° NNW 06:05:57 12° NNW 06:05:57 12° NNW
Cosmos 1697 Rocket 4.2 06:07:21 10° N 06:10:50 32° NNE 06:10:50 32° NNE
Cosmos 1980 Rocket 4.1 06:15:15 10° N 06:19:10 22° NE 06:19:10 22° NE
USA 59 Rocket 2.7 06:16:29 10° NW 06:17:27 17° NW 06:17:27 17° NW
Cosmos 2082 Rocket 3.4 06:54:16 39° NNE 06:54:16 39° NNE 06:57:45 10° NNE
Resurs 1-4 Rocket 4.1 07:17:32 10° NE 07:20:15 19° ENE 07:20:15 19° ENE
Cosmos 1745 Rocket 4.2 07:47:13 67° NE 07:47:13 67° NE 07:52:45 10° N
NOSS 3-4 (A) 4.0 07:49:58 10° NW 07:56:33 66° W 07:56:33 66° W
NOSS 3-4 (C) 4.0 07:50:05 10° NW 07:56:43 67° W 07:56:43 67° W
NPP 4.2 07:52:10 10° NNE 07:56:33 53° NE 07:56:33 53° NE
ATLAS CENTAUR R/B 3.9 07:47:39 10° NW 07:59:39 61° WSW 07:59:39 61° WSW
Cosmos 1980 Rocket 3.8 07:58:22 10° NW 08:00:53 25° NW 08:00:53 25° NW
SJ 16-02 3.1 08:06:53 28° ENE 08:06:53 28° ENE 08:09:24 10° NNE
USA 234 3.2 08:05:25 56° SE 08:07:00 83° NE 08:13:34 10° NW
ADEOS II 3.2 08:03:04 10° NNE 08:07:43 35° E 08:07:43 35° E
IDEFIX/ARIANE 42P 2.9 08:07:07 10° NNE 08:11:29 63° NNE 08:11:29 63° NNE
Nadezhda 1 Rocket 3.9 08:10:23 10° N 08:16:37 80° WNW 08:16:37 80° WNW
CZ-2C R/B 3.3 08:26:17 10° NNE 08:32:05 73° ESE 08:32:29 70° SE
SL-16 R/B 2.3 08:29:05 10° NNW 08:34:45 70° ENE 08:36:03 52° SE
Cosmos 968 Rocket 3.9 08:41:59 50° NW 08:41:59 50° NW 08:46:26 10° N
AQUA 3.9 08:39:11 10° NNE 08:43:53 65° ESE 08:43:54 65° ESE
Cosmos 1825 4.5 08:47:20 16° E 08:47:43 16° E 08:49:52 10° NE
CZ-2D R/B 2.3 08:42:27 10° N 08:47:48 58° WNW 08:47:51 58° WNW
CRYOSAT 2 4.3 08:43:01 10° N 08:47:46 82° NW 08:47:46 82° NW
Cosmos 1709 Rocket 4.3 08:48:17 49° W 08:48:36 49° W 08:54:44 10° N
BREEZE-M R/B 4.2 08:47:03 35° WNW 08:48:55 50° NNW 09:01:49 10° NE
SL-16 R/B 3.2 08:46:58 13° SE 08:52:24 53° ENE 08:58:28 10° N
Meteor 1-24 Rocket 3.8 08:51:31 56° S 08:52:53 83° E 08:58:56 10° N
DELTA 2 R/B (1) 4.4 08:49:50 16° WNW 08:54:07 47° N 08:59:28 10° E
Cosmos 2237 4.1 08:49:28 10° NNW 08:55:09 67° WSW 08:55:27 66° SW
OAO 3 Rocket 3.3 08:54:36 64° NW 08:55:14 74° N 09:00:08 10° E
Cosmos 1892 4.3 08:55:11 25° E 08:55:25 25° E 08:58:20 10° NE
Cosmos 2360 Rocket 3.1 08:50:54 10° N 08:56:24 48° ENE 09:01:51 10° SE
Cosmos 841 Rocket 4.4 08:52:47 10° NNW 08:56:15 34° WNW 08:56:15 34° WNW
Resurs 1-4 Rocket 2.7 08:56:23 10° N 09:01:13 39° WNW 09:01:18 39° WNW
Cosmos 2181 Rocket 4.1 08:55:03 10° N 09:01:23 72° E 09:04:59 27° SSE
SL-4 R/B 2.2 09:06:31 63° NW 09:06:32 63° NW 09:10:55 10° NE
Tiangong -0.4 09:08:06 32° ENE 09:08:06 32° ENE 09:09:55 10° ENE
FENGYUN 3A 3.8 09:07:24 10° N 09:12:39 56° WNW 09:13:35 49° WSW
CZ-2C R/B 2.9 09:15:09 44° W 09:15:09 44° W 09:20:00 10° NNW
IRAS Rocket 4.1 09:10:33 10° NNE 09:16:03 83° WNW 09:17:50 45° SSW
Cosmos 2278 4.5 09:11:32 10° NW 09:15:52 33° W 09:15:52 33° W
Cosmos 2098 Rocket 3.7 09:12:20 10° N 09:17:56 80° W 09:21:18 29° S
SL-8 R/B 3.5 09:15:16 10° NW 09:20:03 86° SW 09:24:50 10° SE
Cosmos 1674 Rocket 3.5 09:20:37 54° S 09:21:35 90° SE 09:26:03 10° N
Lacrosse 5 rocket 1.1 09:20:35 10° NW 09:24:34 86° ENE 09:28:20 10° SE
Cosmos 1814 Rocket 3.9 09:21:31 10° NNW 09:26:44 73° WSW 09:29:48 25° S
Okean 2 Rocket 3.5 09:22:34 10° N 09:26:55 60° E 09:30:06 18° SSE
Cosmos 2333 Rocket 2.2 09:24:39 10° NNW 09:30:25 87° ENE 09:36:10 10° SSE
Cosmos 405 Rocket 3.4 09:30:28 10° N 09:33:59 50° E 09:36:44 16° SSE
Cosmos 1295 Rocket 4.4 09:30:42 29° SSW 09:34:00 77° W 09:40:07 10° N
Cosmos 2322 Rocket 2.2 09:28:34 10° NNW 09:34:06 57° WSW 09:37:44 21° S
Meteor 2-5 Rocket 4.4 09:32:53 33° WSW 09:34:33 40° WNW 09:40:07 10° N
Cosmos 2297 Rocket 4.1 09:31:10 10° SSE 09:35:40 25° ESE 09:40:11 10° NE
ATLAS CENTAUR R/B 1.3 09:36:07 44° SSE 09:36:51 55° ESE 09:40:16 10° NE
Cosmos 1378 Rocket 3.9 09:38:01 41° WSW 09:38:39 44° W 09:42:45 10° N
Cosmos 1486 Rocket 4.1 09:36:16 27° S 09:39:09 75° ESE 09:44:21 10° NNE
OAO 1 Rocket 4.5 09:37:32 27° W 09:40:28 76° N 09:45:45 10° E
ALOS 2.8 09:38:13 10° N 09:42:32 40° WNW 09:43:48 33° WSW
SJ 16-02 3.3 09:43:39 14° WNW 09:43:52 14° WNW 09:46:12 10° NNW
Cosmos 1570 Rocket 4.4 09:40:09 10° N 09:45:26 65° ENE 09:50:43 10° SSE
ADEOS II 3.4 09:43:09 10° NNW 09:47:11 23° WNW 09:48:35 20° W
Cosmos 2074 Rocket 4.3 09:47:32 27° SW 09:50:37 47° W 09:56:35 10° N
Meteor 1-28 Rocket 4.4 09:51:23 23° WNW 09:51:23 23° WNW 09:53:39 10° NW
Okean 1 Rocket 3.2 09:48:24 10° N 09:52:43 73° E 09:57:01 10° SSE
UNK 3.8 09:51:37 17° S 09:55:03 58° W 09:59:38 10° NNW
COSMOS 2455 3.9 09:51:01 10° S 09:56:35 41° ESE 10:02:11 10° NE
METEOR-M 4.1 09:52:53 10° N 09:58:13 71° WNW 10:02:09 18° SSW
CZ-2C R/B 2.3 09:54:20 10° NNE 09:59:03 81° ESE 10:02:57 14° S
IRS-1D 3.8 09:56:54 10° NNE 10:02:13 71° ESE 10:07:26 10° S
Envisat 3.1 09:57:56 10° N 10:02:57 61° WNW 10:06:34 19° SSW
Cosmos 158 Rocket 4.4 10:02:22 10° N 10:07:43 67° ENE 10:12:58 10° SSE
CZ-4C R/B 3.6 10:05:30 10° SSE 10:08:45 23° ESE 10:12:24 10° ENE
Delta 2 Rocket 4.3 10:08:34 19° WSW 10:12:28 44° S 10:18:10 10° ESE
RESURS DK-1 2.7 10:08:55 10° NW 10:12:43 40° WSW 10:16:31 10° S
Atlas Centaur 2 2.4 10:14:56 17° SSW 10:16:53 26° SSE 10:19:57 10° ESE
SL-16 R/B 4.0 10:16:06 10° WNW 10:17:48 12° W 10:17:48 12° W
Cosmos 2322 4.0 10:15:08 10° NNW 10:20:50 74° ENE 10:26:28 10° SSE
Cosmos 1825 3.6 10:20:53 16° W 10:21:45 18° WNW 10:24:08 10° NNW
Cosmos 1975 Rocket 3.0 10:18:33 10° S 10:22:51 84° E 10:27:09 10° N
Nadezhda 3 Rocket 4.3 10:20:31 10° NNW 10:26:35 49° W 10:32:36 10° SSW
Thor Agena Rocket 3.7 10:25:06 10° N 10:30:16 63° WNW 10:35:27 10° SSW
Cosmos 2219 Rocket 2.4 10:25:48 10° NNW 10:31:12 48° WSW 10:36:37 10° S
YAOGAN 6 3.1 10:29:07 10° N 10:32:07 33° WNW 10:34:44 12° SW
SL-24 DEB 4.4 10:28:55 10° N 10:33:17 50° W 10:37:38 10° SSW
SL-16 R/B 3.8 10:32:02 11° SW 10:36:11 20° W 10:40:35 10° NW
Cosmos 2341 Rocket 4.0 10:30:32 10° SSW 10:36:46 70° W 10:43:00 10° N
OAO 3 Rocket 3.3 10:33:46 10° W 10:38:34 56° SSW 10:43:18 10° SE
Cosmos 2360 Rocket 3.5 10:36:10 10° WNW 10:39:54 18° W 10:43:37 10° SW
DELTA 2 R/B (1) 3.5 10:35:13 10° WNW 10:40:47 80° SSW 10:46:19 10° ESE
COSMOS 2428 2.8 10:35:30 10° NNW 10:41:12 88° ENE 10:46:53 10° SSE
Cosmos 2366 rocket 4.1 10:36:45 10° S 10:43:05 79° W 10:49:27 10° N
Tiangong -0.1 10:41:12 10° WNW 10:43:40 22° NNW 10:46:09 10° NE
ATLAS 2AS CENTAUR R/B 2.6 10:38:45 10° NW 10:45:23 67° WSW 10:51:52 10° SSE
Cosmos 1025 Rocket 4.3 10:42:37 10° SW 10:46:08 24° WNW 10:49:41 10° NNW
Geosat 4.3 10:41:37 10° S 10:46:21 43° WSW 10:51:07 10° NW
ASTEX 1 4.0 10:42:48 10° SSW 10:47:19 36° W 10:51:51 10° NNW
H-2A R/B 2.3 10:44:58 10° NNE 10:50:27 87° ESE 10:55:51 10° SSW
In-Cosmos 22 Rocket 4.3 10:46:42 10° SSW 10:52:02 59° W 10:57:33 10° N
Cosmos 1455 Rocket 3.2 10:49:32 10° NNW 10:53:48 52° W 10:58:05 10° S
Cosmos 2237 Rocket 3.8 10:49:23 10° N 10:54:44 41° ENE 11:00:02 10° SE
Cosmos 2227 Rocket 2.6 10:50:21 10° S 10:55:57 68° ESE 11:01:35 10° NNE
ARIANE 5 R/B 4.3 10:52:05 10° NE 10:56:35 32° E 11:01:00 10° SSE
